STARLINK-30541, 58057

Orbit data source: Space-Track

STARLINK-30541, 58057 is a payload satellite owned by SpaceX/Seattle (US) in LEO that was launched on Fri, 13 Oct 2023 UTC via an FALCON 9 launch vehicle from the Air Force Eastern Test Range (AFETR). Payload-class satellites include a variety of spacecraft equipped with specific instruments for various scientific and technological missions. These include communications satellites like Starlink; space stations such as the ISS; scientific satellites like the Hubble; Earth observation satellites from companies like Planet Labs, Umbra, and HawkEye 360; GPS; miniature CubeSats for education and research; and military/defense satellites.

Loading next visibility...
Identifier
58057, 2023-158G
Orbit
LEO
Country
Flag of USUS
Related business
Manufacturer
SpaceX/Seattle
Mission
Operational Commercial Communications
Bus & Motor
STARLINK V2M, Unknown motor
Mass
730 kg wet, ~700 kg dry
Launch date (UTC)
2023-10-13 (3 years ago)
Launch vehicle
FALCON 9
Launch site
Air Force Eastern Test Range (AFETR)
Object type
Payload
Rocket body
Debris
Shape & HBR
Box + 2 Pan, 17.7 m
Radar Cross Section
33.884 m², Large (>1 m²)

Expand to show TLE details & history
Last TLE update: 2 days ago

TLE from 2 days ago
0 STARLINK-30541
1 58057U 23158G   26171.02698343 -.00000676  00000-0 -15043-4 0  9994
2 58057  42.9998 168.8895 0000969 271.3755  88.6986 15.27583509149225
Epoch: 2026-06-20T00:38Z
TLE epoch observation values (Epoch: 2026-06-20T00:38:51.368Z)
Latitude
0.00001°
Longitude
-109.07203°
Altitude
482.799 km
Speed
7.626 km/s
True Right ascension
11h 15m 33s
True Declination
0° 00' 00"
Sunlit
Object was in daylight at epoch
Visualization orbit readout
Latitude
Unknown
Longitude
Unknown
Altitude
Unknown
Speed
Unknown
Apparent Right ascension
Unknown
Apparent Declination
Unknown
Sunlit
N/A
Visualization observer readout
Local Sidereal Time
21:33:21
Azimuth
Unknown
Elevation
Unknown
Doppler factor
Unknown
Orbital elements
Apogee altitude
485.649 km
Perigee altitude
484.319 km
Semi-major axis
6,863.121 km
Eccentricity
0.0001
Inclination
42.9998°
RAAN
168.8895°
Arg. of periapsis
271.3755°
True anomaly
88.7097°
Mean anomaly
88.6986°
Eccentric anomaly
88.70415°
Mean motion
3.81734 °/min
Orbital period
94.31 mins
BSTAR
-0.000015043
Loading maneuver chart data...
Computing Atmospheric mass density...
Loading historical data...
Loading historical data...
Loading historical data...
Loading historical data...
Loading historical data...
Loading historical data...
Loading historical data...

Documentation

Showing up to 5 results
|